Flag for India Weather past 2 weeks in Mumbai, Maharashtra, India

84 °F

Passing clouds.

Feels Like: 91 °F
Forecast: 83 / 90 °F
Wind: 5 mph from Southeast

Location: Mumbai / Santacruz

Current Time: Nov 26, 2015 at 2:12:35 AM

Latest Report: Nov 26, 2015 at 1:30 AM

Visibility: 2 mi

Pressure: 29.89 "Hg

Humidity: 70%

Dew point: 73 °F

Location of MumbaiLocation

Historic Weather in Mumbai — Graph


Mumbai temperature yesterday

Maximum temperature yesterday: 91 °F (at 11:00 AM)
Minimum temperature yesterday: 82 °F (at 1:30 AM)
Average temperature yesterday: 86 °F

Past Weeks' High & Low Weather Summary

High99 °F (Nov 20, 3:00 PM)84% (Nov 22, 10:00 PM)29.98 "Hg (Nov 22, 10:00 PM)
Low75 °F (Nov 18, 6:30 AM)19% (Nov 19, 3:30 PM)29.74 "Hg (Nov 15, 3:30 PM)
Average86 °F50%29.85 "Hg
* Reported Nov 11 12:40 AM — Nov 26 12:30 AM, Mumbai, Weather by CustomWeather, © 2015

Note: Actual official high and low records may vary slightly from our data, if they occured in-between our weather recording intervals... More about our weather records


Mumbai weather history for previous 24 hours

Time TempWeatherWind HumidityBarometerVisibility
12:30 AM
Thu, Nov 26
86 °FPassing clouds.No wind62%29.89 "Hg2 mi
12:00 AM86 °FPassing clouds.No wind59%29.89 "Hg2 mi
11:30 PM
Wed, Nov 25
86 °FPassing clouds.No wind62%29.92 "Hg2 mi
11:00 PM86 °FPassing clouds.No wind62%29.92 "Hg2 mi
10:30 PM88 °FPassing clouds.7 mph62%29.92 "Hg2 mi
10:00 PM86 °FPassing clouds.5 mph66%29.92 "Hg2 mi
9:30 PM86 °FPassing clouds.6 mph66%29.92 "Hg2 mi
9:00 PM86 °FPassing clouds.6 mph66%29.92 "Hg2 mi
8:30 PM86 °FPassing clouds.5 mph70%29.92 "Hg2 mi
8:00 PM90 °FPassing clouds.8 mph59%29.89 "Hg2 mi
7:30 PM88 °FPassing clouds.5 mph62%29.89 "Hg2 mi
7:00 PM88 °FPassing clouds.5 mph59%29.86 "Hg2 mi
6:30 PM88 °FPassing clouds.6 mph62%29.86 "Hg2 mi
6:00 PM88 °FPartly sunny.7 mph62%29.86 "Hg2 mi
5:30 PM88 °FPartly sunny.8 mph66%29.86 "Hg2 mi
5:00 PM88 °FPartly sunny.9 mph62%29.83 "Hg2 mi
4:30 PM90 °FBroken clouds.7 mph59%29.83 "Hg2 mi
4:00 PM90 °FBroken clouds.7 mph63%29.83 "Hg2 mi
3:30 PM90 °FBroken clouds.7 mph59%29.83 "Hg2 mi
3:00 PM90 °FBroken clouds.8 mph59%29.83 "Hg2 mi
2:30 PM91 °FPartly sunny.9 mph56%29.83 "Hg2 mi
1:30 PM88 °FPartly sunny.9 mph59%29.83 "Hg2 mi
12:30 PM91 °FScattered clouds.7 mph46%29.86 "Hg2 mi
11:30 AM91 °FScattered clouds.6 mph46%29.89 "Hg2 mi
11:00 AM91 °FScattered clouds.6 mph49%29.89 "Hg2 mi
10:30 AM90 °FScattered clouds.7 mph52%29.92 "Hg2 mi
10:00 AM90 °FScattered clouds.3 mph55%29.92 "Hg2 mi
9:30 AM88 °FPartly sunny.No wind62%29.92 "Hg2 mi
9:00 AM86 °FPartly sunny.3 mph62%29.92 "Hg2 mi
8:30 AM82 °FPartly sunny.5 mph70%29.89 "Hg2 mi
8:00 AM82 °FPartly sunny.3 mph70%29.89 "Hg2 mi
7:30 AM82 °FPartly sunny.3 mph74%29.89 "Hg2 mi
7:00 AM82 °FPassing clouds.3 mph74%29.86 "Hg2 mi
6:30 AM82 °FPassing clouds.5 mph74%29.86 "Hg2 mi
5:30 AM82 °FPassing clouds.No wind70%29.83 "Hg2 mi
5:00 AM82 °FPassing clouds.3 mph70%29.83 "Hg2 mi
4:30 AM82 °FPassing clouds.3 mph74%29.83 "Hg2 mi
3:30 AM82 °FPassing clouds.No wind74%29.83 "Hg2 mi
3:00 AM82 °FPassing clouds.3 mph74%29.83 "Hg2 mi
2:30 AM82 °FPassing clouds.No wind74%29.86 "Hg2 mi
2:00 AM84 °FPassing clouds.No wind70%29.86 "Hg2 mi
Weather by CustomWeather, © 2015

See weather overviewHow to use our weather pages